Carmi, IL

9:30 PM CDT on May 27, 2018 (GMT -0500)
Carmi Municipal

Weather History for KCUL - December, 2013

Change the Weather History Date:

Tuesday, December 17, 2013

  Actual Average (KEHR) Record (KEHR)
Temperature  
Mean Temperature 34 °F -  
Max Temperature 38 °F 42 °F 68 °F (1984)
Min Temperature 29 °F 26 °F -4 °F (1989)
Degree Days  
Heating Degree Days 32    
Moisture  
Dew Point 30 °F    
Average Humidity 89    
Maximum Humidity 100    
Minimum Humidity 77    
Precipitation  
Precipitation 0.00 in - - ()
Sea Level Pressure  
Sea Level Pressure 30.18 in    
Wind  
Wind Speed 8 mph (West)    
Max Wind Speed 15 mph    
Max Gust Speed 16 mph    
Visibility 6 miles    
Events      
Averages and records for this station are not official NWS values.
T = Trace of Precipitation, MM = Missing Value Source: NWS Daily Summary

Daily Weather History Graph

Daily Weather History Graph

Search for Another Location

Airport or City:

Astronomy

Dec. 17, 2013 Rise Set
Actual Time 7:03 AM CST 4:34 PM CST
Civil Twilight 6:33 AM CST 5:04 PM CST
Nautical Twilight 6:00 AM CST 5:37 PM CST
Astronomical Twilight 5:28 AM CST 6:09 PM CST
Moon 5:13 PM CST (12/17) 7:00 AM CST (12/17)
Length of Visible Light 10h 30m
Length of Day
9h 31m
Full, 100% of the Moon is Illuminated
Dec 17
Full
Dec 25
Last Quarter
Jan 1
New
Jan 7
First Quarter
Jan 15
Full

Hourly Weather History & Observations

Time (CST) Temp. Windchill Dew Point Humidity Pressure Visibility Wind Dir Wind Speed Gust Speed Precip Events Conditions
12:15 AM 35.6 °F 31.7 °F 33.1 °F 91% 30.08 in 7.0 mi WNW 4.6 mph - N/A   Clear
12:35 AM 35.4 °F 29.7 °F 32.2 °F 88% 30.07 in 7.0 mi WNW 6.9 mph - N/A   Clear
12:55 AM 34.9 °F 27.7 °F 32.0 °F 89% 30.09 in 7.0 mi WNW 9.2 mph - N/A   Clear
1:15 AM 34.3 °F 27.7 °F 31.8 °F 90% 30.09 in 5.0 mi NW 8.1 mph - N/A   Clear
1:35 AM 33.8 °F 25.8 °F 31.8 °F 92% 30.10 in 5.0 mi NW 10.4 mph - N/A   Clear
1:55 AM 33.1 °F 23.9 °F 31.3 °F 93% 30.10 in 5.0 mi North 12.7 mph - N/A   Scattered Clouds
2:15 AM 31.6 °F 23.1 °F 30.0 °F 94% 30.10 in 5.0 mi NNW 10.4 mph - N/A   Mostly Cloudy
2:35 AM 30.9 °F 22.8 °F 30.2 °F 97% 30.11 in 4.0 mi NW 9.2 mph - N/A   Mostly Cloudy
2:55 AM 30.6 °F 20.7 °F 30.0 °F 98% 30.13 in 4.0 mi NW 12.7 mph - N/A   Overcast
3:15 AM 30.2 °F 20.2 °F 30.0 °F 99% 30.13 in 4.0 mi NNW 12.7 mph 16.1 mph N/A   Overcast
3:35 AM 30.2 °F 23.4 °F 29.8 °F 99% 30.13 in 4.0 mi NNW 6.9 mph - N/A   Overcast
3:55 AM 30.2 °F 21.9 °F 29.8 °F 99% 30.15 in 4.0 mi NW 9.2 mph - N/A   Overcast
4:15 AM 30.0 °F 23.2 °F 29.8 °F 99% 30.15 in 3.0 mi NW 6.9 mph - N/A   Overcast
4:35 AM 29.8 °F 22.2 °F 29.7 °F 99% 30.16 in 3.0 mi WNW 8.1 mph - N/A   Overcast
4:55 AM 29.3 °F 22.3 °F 29.3 °F 100% 30.15 in 3.0 mi West 6.9 mph - N/A   Overcast
5:15 AM 29.3 °F 23.2 °F 29.3 °F 100% 30.15 in 2.5 mi West 5.8 mph - N/A   Overcast
5:35 AM 29.3 °F 22.3 °F 29.3 °F 100% 30.15 in 2.5 mi WNW 6.9 mph - N/A   Overcast
5:55 AM 29.3 °F 24.3 °F 29.1 °F 99% 30.13 in 4.0 mi WSW 4.6 mph - N/A   Overcast
6:15 AM 29.3 °F 23.2 °F 28.9 °F 99% 30.15 in 4.0 mi West 5.8 mph - N/A   Overcast
6:35 AM 29.3 °F 25.6 °F 28.4 °F 96% 30.15 in 5.0 mi West 3.5 mph - N/A   Overcast
6:55 AM 29.3 °F 21.5 °F 28.4 °F 96% 30.15 in 5.0 mi WNW 8.1 mph - N/A   Overcast
7:15 AM 29.3 °F 23.2 °F 28.8 °F 98% 30.15 in 4.0 mi NW 5.8 mph - N/A   Overcast
7:35 AM 29.3 °F 21.5 °F 28.8 °F 98% 30.16 in 3.0 mi NW 8.1 mph - N/A   Mostly Cloudy
7:55 AM 29.7 °F 22.0 °F 28.9 °F 97% 30.15 in 3.0 mi NW 8.1 mph - N/A   Overcast
8:15 AM 29.8 °F 23.9 °F 29.3 °F 98% 30.15 in 2.5 mi NW 5.8 mph - N/A   Overcast
8:35 AM 30.0 °F 24.1 °F 29.3 °F 97% 30.17 in 2.5 mi NW 5.8 mph - N/A   Overcast
8:55 AM 30.2 °F 22.6 °F 29.3 °F 96% 30.18 in 3.0 mi WNW 8.1 mph - N/A   Overcast
9:15 AM 30.6 °F 24.7 °F 29.1 °F 94% 30.18 in 4.0 mi West 5.8 mph - N/A   Overcast
9:35 AM 31.1 °F 23.7 °F 29.3 °F 93% 30.19 in 4.0 mi West 8.1 mph - N/A   Overcast
9:55 AM 31.3 °F 23.9 °F 28.9 °F 91% 30.19 in 5.0 mi West 8.1 mph - N/A   Overcast
10:15 AM 31.1 °F 23.7 °F 28.8 °F 91% 30.19 in 5.0 mi West 8.1 mph - N/A   Mostly Cloudy
10:35 AM 31.8 °F 23.3 °F 29.5 °F 91% 30.19 in 5.0 mi West 10.4 mph - N/A   Overcast
10:55 AM 32.0 °F 24.2 °F 29.7 °F 91% 30.19 in 4.0 mi West 9.2 mph - N/A   Overcast
11:15 AM 32.0 °F 23.0 °F 29.8 °F 92% 30.18 in 4.0 mi West 11.5 mph - N/A   Overcast
11:35 AM 32.7 °F 24.5 °F 29.8 °F 89% 30.18 in 4.0 mi West 10.4 mph - N/A   Mostly Cloudy
11:55 AM 33.6 °F 26.2 °F 30.6 °F 89% 30.16 in 4.0 mi West 9.2 mph - N/A   Mostly Cloudy
12:15 PM 34.7 °F 28.8 °F 31.1 °F 87% 30.16 in 5.0 mi West 6.9 mph - N/A   Scattered Clouds
12:35 PM 36.0 °F 31.1 °F 31.8 °F 85% 30.15 in 5.0 mi West 5.8 mph - N/A   Clear
12:55 PM 37.4 °F 30.3 °F 32.4 °F 82% 30.15 in 5.0 mi West 10.4 mph - N/A   Haze
1:15 PM 37.0 °F 31.6 °F 32.0 °F 82% 30.16 in 5.0 mi West 6.9 mph - N/A   Haze
1:35 PM 37.9 °F 32.7 °F 32.7 °F 81% 30.15 in 5.0 mi West 6.9 mph - N/A   Haze
1:55 PM 38.5 °F 30.7 °F 32.2 °F 78% 30.16 in 7.0 mi West 12.7 mph - N/A   Scattered Clouds
2:15 PM 38.3 °F 30.9 °F 32.0 °F 78% 30.16 in 7.0 mi West 11.5 mph - N/A   Scattered Clouds
2:35 PM 38.5 °F 29.9 °F 32.0 °F 78% 30.18 in 7.0 mi West 15.0 mph - N/A   Scattered Clouds
2:55 PM 38.3 °F 30.1 °F 32.0 °F 78% 30.18 in 7.0 mi West 13.8 mph - N/A   Clear
3:15 PM 38.1 °F 31.7 °F 32.0 °F 79% 30.18 in 7.0 mi West 9.2 mph - N/A   Clear
3:35 PM 37.8 °F 30.7 °F 32.0 °F 80% 30.19 in 7.0 mi West 10.4 mph - N/A   Clear
3:55 PM 37.8 °F 30.7 °F 32.0 °F 80% 30.19 in 7.0 mi West 10.4 mph - N/A   Clear
4:15 PM 37.8 °F 31.8 °F 32.0 °F 80% 30.18 in 7.0 mi WSW 8.1 mph - N/A   Clear
4:35 PM 37.0 °F 30.4 °F 31.8 °F 81% 30.18 in 7.0 mi WSW 9.2 mph - N/A   Clear
4:55 PM 36.5 °F 31.0 °F 31.8 °F 83% 30.19 in 7.0 mi WSW 6.9 mph - N/A   Clear
5:15 PM 35.8 °F 30.1 °F 31.6 °F 85% 30.20 in 7.0 mi WSW 6.9 mph - N/A   Clear
5:35 PM 35.6 °F 29.9 °F 31.6 °F 85% 30.20 in 7.0 mi West 6.9 mph - N/A   Clear
5:55 PM 34.5 °F 29.4 °F 31.3 °F 88% 30.20 in 7.0 mi West 5.8 mph - N/A   Clear
6:15 PM 34.7 °F 28.8 °F 31.1 °F 87% 30.21 in 10.0 mi WSW 6.9 mph - N/A   Clear
6:35 PM 34.9 °F 28.3 °F 31.1 °F 86% 30.23 in 10.0 mi West 8.1 mph - N/A   Clear
6:55 PM 35.6 °F 29.2 °F 30.9 °F 83% 30.23 in 10.0 mi West 8.1 mph - N/A   Clear
7:15 PM 36.5 °F 29.7 °F 30.2 °F 78% 30.23 in 10.0 mi West 9.2 mph - N/A   Clear
7:35 PM 36.5 °F 29.2 °F 29.8 °F 77% 30.24 in 10.0 mi West 10.4 mph - N/A   Clear
7:55 PM 35.6 °F 29.9 °F 29.1 °F 77% 30.24 in 10.0 mi West 6.9 mph - N/A   Clear
8:15 PM 34.5 °F 29.4 °F 28.9 °F 80% 30.25 in 10.0 mi West 5.8 mph - N/A   Clear
8:35 PM 33.3 °F 27.9 °F 28.4 °F 82% 30.24 in 10.0 mi WSW 5.8 mph - N/A   Clear
8:55 PM 32.9 °F 28.5 °F 28.6 °F 84% 30.25 in 10.0 mi WSW 4.6 mph - N/A   Clear
9:15 PM 32.5 °F 27.1 °F 28.4 °F 85% 30.25 in 10.0 mi SW 5.8 mph - N/A   Clear
9:35 PM 32.0 °F 26.4 °F 28.2 °F 86% 30.25 in 10.0 mi SW 5.8 mph - N/A   Clear
9:55 PM 31.8 °F 26.2 °F 28.2 °F 87% 30.26 in 10.0 mi SW 5.8 mph - N/A   Clear
10:15 PM 32.0 °F 25.6 °F 28.0 °F 85% 30.26 in 10.0 mi SW 6.9 mph - N/A   Clear
10:35 PM 31.8 °F 26.2 °F 27.9 °F 85% 30.26 in 10.0 mi SW 5.8 mph - N/A   Clear
10:55 PM 30.9 °F 24.3 °F 27.5 °F 87% 30.26 in 10.0 mi SW 6.9 mph - N/A   Clear
11:15 PM 30.9 °F 26.2 °F 27.5 °F 87% 30.27 in 10.0 mi SW 4.6 mph - N/A   Clear
11:35 PM 32.0 °F 25.6 °F 27.7 °F 84% 30.27 in 10.0 mi West 6.9 mph - N/A   Clear
11:55 PM 32.4 °F 25.3 °F 27.5 °F 82% 30.27 in 10.0 mi West 8.1 mph - N/A   Clear